Regional Weather Roundup
Issued by NWS

Home | Current Version | Previous Version | Graphics & Text | Print | Product List | Glossary On
Versions: 1 2 3 4 5 6 7 8 9 10 11 12 13 14 15 16 17 18 19 20 21 22 23 24 25 26 27 28 29 30 31 32 33 34 35 36 37 38 39 40 41 42 43 44 45 46 47 48 49 50
000
ASUS43 KLSX 232007
RWRMO

WEATHER SUMMARY FOR MISSOURI
NATIONAL WEATHER SERVICE SPRINGFIELD MO
300 PM CDT SAT JUL 23 2016

NOTE: "FAIR" INDICATES FEW OR NO CLOUDS BELOW 12,000 FEET WITH NO
       SIGNIFICANT WEATHER AND/OR OBSTRUCTIONS TO VISIBILITY.
       CURRENT SKY AND/OR WEATHER CONDITIONS ARE NOT AVAILABLE FOR
       CHILLICOTHE AND FARMINGTON.

MOZ001>031-035>038-043-044-053-054-232100-
...NORTHERN AND WESTERN MISSOURI...

CITY           SKY/WX    TMP DP  RH WIND       PRES   REMARKS
KANSAS CTY INT PTSUNNY   91  77  63 S13       29.90F HX 104
KANSAS C DTWN  CLOUDY    93  72  50 S13       29.89F HX 101
LEE`S SUMMIT   MOSUNNY   93  71  48 SW13      29.92F HX 100
ST JOSEPH      CLOUDY    93  75  55 S12G21    29.87S HX 104
CHILLICOTHE      N/A     95  78  58 S10       29.90F HX 111
KIRKSVILLE     MOSUNNY   95  74  50 S13G18    29.93F HX 105

$$
MOZ066>068-077>081-088>096-101>105-232100-
...SOUTHWEST MISSOURI...

CITY           SKY/WX    TMP DP  RH WIND       PRES   REMARKS
SPRINGFIELD    SUNNY     97  68  38 SW8       29.96F HX 102
JOPLIN         SUNNY     95  72  47 S12G20    29.94F HX 103
BRANSON        MOSUNNY   95  72  46 CALM      29.99F HX 103

$$
MOZ032>034-039>042-045>050-055>058-069>072-232100-
...CENTRAL MISSOURI...

CITY           SKY/WX    TMP DP  RH WIND       PRES   REMARKS
COLUMBIA       SUNNY     94  74  52 S7        29.94F HX 104
JEFFERSON CITY MOSUNNY   96  72  45 S8        29.92F HX 104
ROLLA          MOSUNNY   94  75  54 S5        29.96F HX 105
SEDALIA        MOSUNNY   97  75  49 S8        29.95S HX 109
WHITEMAN AFB   MOSUNNY   95  76  54 S13       29.92S HX 108
OSAGE BEACH    MOSUNNY   95  74  50 VRB3      29.96F HX 105

$$
MOZ051-052-059>065-232100-
...EAST CENTRAL MISSOURI...

CITY           SKY/WX    TMP DP  RH WIND       PRES   REMARKS
ST LOUIS INTL  MOSUNNY   95  72  47 E8        29.96F HX 103
SPIRIT OF STL  MOSUNNY   94  74  52 SE5       29.94F HX 104
ST CHARLES     SUNNY     92  78  63 E8        29.94F HX 107

$$
MOZ072>076-082>087-097>100-106>115-232100-
...SOUTH CENTRAL AND SOUTHEAST MISSOURI...

CITY           SKY/WX    TMP DP  RH WIND       PRES   REMARKS
CAPE GIRARDEAU PTSUNNY   90  73  57 VRB7      29.95F HX  98
FARMINGTON     SUNNY     93  74  53 E7        29.99F HX 103
POPLAR BLUFF   MOSUNNY   93  74  53 CALM      29.94F HX 103
WEST PLAINS    MOSUNNY   96  73  47 VRB3      29.99F HX 105

$$


USA.gov is the U.S. government's official web portal to all federal, state and local government web resources and services.